EW6434 Weather Reports


time (UTC)temp
F
wind
direction
speed
knots
gust
knots
rain 1hr
in
rain 24hr
in
rain mn
in
humidity
%
barometer
mb
20260509040025 44 262 0.0 1.7 0.00 0.00 0.00 51 1012.6
20260509034524 45 46 0.0 0.9 0.00 0.00 0.00 48 1012.4
20260509033024 46 260 0.0 0.9 0.00 0.00 0.00 46 1012.1
20260509031531 48 233 0.0 2.6 0.00 0.00 0.00 41 1011.9
20260509030032 49 36 0.0 2.6 0.00 0.00 0.00 38 1011.7
20260509024534 51 263 0.0 1.7 0.00 0.00 0.00 35 1011.3
20260509023022 52 217 0.0 0.9 0.00 0.00 0.00 34 1011.1
20260509021522 54 262 0.0 2.6 0.00 0.00 0.00 31 1010.8
20260509020020 56 221 0.0 2.6 0.00 0.00 0.00 27 1010.6
20260509014520 57 273 0.9 3.5 0.00 0.00 0.00 27 1010.3
20260509013026 58 230 0.0 1.7 0.00 0.00 0.00 26 1010.2
20260509011519 60 258 0.0 0.9 0.00 0.00 0.00 24 1010.0
20260509010023 62 234 0.0 3.5 0.00 0.00 0.00 22 1009.9
20260509004519 64 154 0.0 2.6 0.00 0.00 0.00 24 1009.8
20260509003016 63 179 0.9 3.5 0.00 0.00 0.00 23 1009.9
20260509001516 63 245 0.9 3.5 0.00 0.00 0.00 26 1009.8
20260509000016 64 255 0.0 3.5 0.00 0.00 0.00 25 1009.9
20260508234515 62 240 0.9 5.2 0.00 0.00 0.00 27 1010.0
20260508233014 62 203 0.0 4.3 0.00 0.00 0.00 27 1010.0
20260508231513 64 249 1.7 5.2 0.00 0.00 0.00 25 1010.1
20260508230012 65 140 1.7 6.1 0.00 0.00 0.00 23 1010.1
20260508224510 62 153 0.0 3.5 0.00 0.00 0.00 27 1010.2
20260508223021 61 229 0.9 2.6 0.00 0.00 0.00 27 1010.3
20260508221509 61 216 0.0 4.3 0.00 0.00 0.00 26 1010.5
20260508220020 60 217 0.9 5.2 0.00 0.00 0.00 27 1010.6
20260508214506 61 75 0.0 2.6 0.00 0.00 0.00 26 1010.7
20260508213118 62 264 0.0 2.6 0.00 0.00 0.00 26 1010.6
20260508211502 64 184 0.9 13.0 0.00 0.00 0.00 24 1010.9
20260508210101 63 125 0.9 7.8 0.00 0.00 0.00 23 1011.0
20260508204622 62 111 0.9 9.6 0.00 0.00 0.00 26 1011.1
20260508203102 63 243 0.9 4.3 0.00 0.00 0.00 24 1011.2
20260508201610 63 208 0.9 9.6 0.00 0.00 0.00 22 1011.2
20260508200126 63 217 0.9 6.1 0.00 0.00 0.00 25 1011.3
20260508194556 63 273 4.3 15.6 0.00 0.00 0.00 24 1011.3
20260508193057 63 266 1.7 6.1 0.00 0.00 0.00 23 1011.4
20260508191552 63 78 3.5 7.8 0.00 0.00 0.00 22 1011.6
20260508190057 62 189 1.7 7.8 0.00 0.00 0.00 25 1011.6
20260508184548 63 150 1.7 6.1 0.00 0.00 0.00 25 1011.6
20260508183049 62 90 1.7 4.3 0.00 0.00 0.00 25 1012.0
20260508181606 61 202 2.6 0.0 0.00 0.00 0.00 26 1012.0
20260508180052 61 233 1.7 9.6 0.00 0.00 0.00 26 1012.3
20260508174540 60 41 0.9 5.2 0.00 0.00 0.00 28 1012.4
20260508173040 60 65 2.6 8.7 0.00 0.00 0.00 30 1012.2
20260508171537 59 155 0.9 7.0 0.00 0.00 0.00 28 1012.6
20260508170031 58 238 0.9 7.0 0.00 0.00 0.00 29 1012.9
20260508164535 58 191 1.7 8.7 0.00 0.00 0.00 28 1013.0
20260508163022 58 274 0.9 7.0 0.00 0.00 0.00 28 1013.0
20260508161519 57 175 0.9 9.6 0.00 0.00 0.00 30 1013.4
20260508160022 56 207 1.7 7.8 0.00 0.00 0.00 31 1013.7
20260508154506 55 139 1.7 10.4 0.00 0.00 0.00 33 1014.1
20260508070031 33 75 0.0 0.0 0.00 0.00 0.00 70 1016.7
20260508064538 34 75 0.0 0.0 0.00 0.00 0.00 70 1016.7
20260508063030 33 75 0.0 0.0 0.00 0.00 0.00 69 1016.8
20260508061529 34 75 0.0 1.7 0.00 0.00 0.00 69 1016.8
20260508054524 35 252 0.0 0.0 0.00 0.00 0.00 66 1016.8
20260508053028 35 252 0.0 0.0 0.00 0.00 0.00 65 1016.9
20260508051524 35 252 0.0 0.0 0.00 0.00 0.00 66 1016.9
20260508050026 36 255 0.0 0.0 0.00 0.00 0.00 64 1016.8
20260508044523 37 255 0.0 0.0 0.00 0.00 0.00 63 1016.9
20260508043022 38 255 0.0 0.0 0.00 0.00 0.00 60 1017.0
20260508041521 39 255 0.0 0.0 0.00 0.00 0.00 59 1017.0